User: anonymous   Login
Location: Newark
(35.2672°N, 80.7344°W)
Time: 23:57:22
(UTC+00:00)
Language:

Transit 4A - Orbit

View from above orbital plane
View from above orbital plane
View from above satellite
View from above satellite

Ground track
Ground track

The orbit data is extracted from the following two-line orbital elements,

1   116U 61015A   20018.56480100 -.00000054 +00000-0 +17607-4 0  9991
2   116 066.8077 217.0709 0069735 116.8437 243.9794 13.91764481970828
Epoch (UTC): 18 January 2020 13:33:18
Eccentricity: 0.0069735
inclination: 66.8077°
perigee height: 871 km
apogee height: 973 km
right ascension of ascending node: 217.0709°
argument of perigee: 116.8437°
revolutions per day: 13.91764481
mean anomaly at epoch: 243.9794°
orbit number at epoch: 97082

The dashed part of the orbit path shows where the satellite is in the earth's shadow,  

DLR